Location: ASU Dark Sky Observatory
(36.2504°N, 81.4125°W)
Time: 05:01:08
(UTC-04:00)

Amateur Radio Satellites - All Passes

Search period start: 30 April 2016 04:31
Search period end: 01 May 2016 04:31
Location: ASU Dark Sky Observatory, 36.2504°N, 81.4125°W

Satellite Date Start Highest point End Downlink Frequencies (MHz)
Time Altitude Azimuth
MOZHAYETS 4 30 Apr 04:50:12 04:54:46 74° 258° (WSW) 04:59:21
CUBESAT XI-V 30 Apr 04:52:59 04:54:22 11° 64° (ENE) 04:55:46 437.345
Gurwin Techsat 1B 30 Apr 04:55:07 04:58:45 19° 295° (WNW) 05:02:23 435.225
BEESAT 3 30 Apr 04:56:00 04:59:53 55° 58° (ENE) 05:03:44 437.485
BEESAT 2 30 Apr 04:57:12 05:00:50 32° 55° (NE) 05:04:25 435.950
HORYU 2 30 Apr 04:57:43 04:59:12 11° 92° (E) 05:00:40 437.375
ITAMSAT 1 30 Apr 04:57:47 05:02:36 40° 289° (WNW) 05:07:23 435.822/435.867
CUSAT 1 30 Apr 05:09:48 05:14:04 17° 275° (W) 05:18:36 437.405
KKS-1 30 Apr 05:11:34 05:15:14 25° 264° (W) 05:18:56 437.445
DANDE 30 Apr 05:21:36 05:26:47 25° 270° (W) 05:32:46 436.750
STARS 30 Apr 05:36:57 05:40:36 25° 264° (W) 05:44:15 437.465
AIST 2 30 Apr 06:03:49 06:05:57 14° 47° (NE) 06:08:05 435.215
YUBILEINY 30 Apr 06:06:35 06:13:57 30° 72° (ENE) 06:21:16 435.215
AO-7 30 Apr 06:15:56 06:23:49 49° 295° (WNW) 06:31:42 29.400- 29.500
RS-15 30 Apr 06:20:13 06:30:46 32° 39° (NE) 06:41:19 29.354- 29.394
CUBESAT XI-V 30 Apr 06:26:36 06:31:09 65° 259° (WSW) 06:35:45 437.345
STRAND 1 30 Apr 06:30:51 06:32:59 13° 62° (ENE) 06:35:07 437.568
HORYU 2 30 Apr 06:31:44 06:36:03 54° 286° (WNW) 06:40:20 437.375
BEESAT 2 30 Apr 06:35:43 06:38:25 18° 250° (WSW) 06:41:06 435.950
Cosmos 2491 30 Apr 06:45:57 06:53:10 30° 84° (E) 07:00:25 435.465 / 435.565
Cubesat XI-IV 30 Apr 06:47:01 06:50:55 20° 94° (E) 06:54:47 437.490
NOAA 15 30 Apr 06:55:42 07:00:41 39° 99° (E) 07:05:36 137.62
GOMX 1 30 Apr 06:59:34 07:02:08 13° 89° (E) 07:04:39 467.674
BRITE-PL 30 Apr 07:07:36 07:12:50 36° 96° (E) 07:17:58 437.365/2234.400
NOAA 18 30 Apr 07:28:54 07:34:21 71° 103° (ESE) 07:39:47 137.9125
M-CUBED/EXP-1 PRIME 30 Apr 07:39:19 07:41:54 17° 97° (E) 07:44:22 437.505
AIST 2 30 Apr 07:40:43 07:44:47 57° 244° (WSW) 07:48:49 435.215
CUTE-I 30 Apr 07:42:27 07:47:47 73° 103° (ESE) 07:53:04 437.470
Cosmos 2504 30 Apr 07:43:02 07:49:30 30° 74° (ENE) 07:56:19 435.465 / 435.565
AUBIESAT-1 30 Apr 08:00:13 08:03:26 24° 100° (E) 08:06:26 437.475
YUBILEINY 30 Apr 08:02:41 08:11:03 54° 270° (W) 08:19:25 435.215
STRAND 1 30 Apr 08:06:26 08:11:31 71° 258° (WSW) 08:16:37 437.568
LilacSat-2 30 Apr 08:08:49 08:12:27 44° 286° (WNW) 08:16:03 437.200
HO-68 30 Apr 08:10:21 08:14:08 15° 91° (E) 08:17:52 435.675
SO-50 30 Apr 08:15:19 08:20:08 62° 117° (ESE) 08:25:00 436.795
ISS 30 Apr 08:18:00 08:21:01 36° 133° (SE) 08:24:02 145.825
Cubesat XI-IV 30 Apr 08:26:07 08:31:08 43° 289° (WNW) 08:36:08 437.490
RS-15 30 Apr 08:32:25 08:44:47 84° 243° (WSW) 08:57:03 29.354- 29.394
GOMX 1 30 Apr 08:35:14 08:40:40 67° 285° (WNW) 08:45:53 467.674
NOAA 15 30 Apr 08:36:01 08:40:11 24° 294° (WNW) 08:44:20 137.62
SEEDS 30 Apr 08:38:12 08:39:15 11° 91° (E) 08:40:18 437.485
Cosmos 2491 30 Apr 08:40:54 08:49:27 54° 282° (WNW) 08:58:06 435.465 / 435.565
BRITE-PL 30 Apr 08:46:17 08:51:05 29° 291° (WNW) 08:55:51 437.365/2234.400
DOVE 4 30 Apr 08:46:47 08:51:59 81° 101° (E) 08:56:53 437.250
CANX-2 30 Apr 09:05:06 09:09:04 39° 99° (E) 09:13:01 2200.000
NOAA 18 30 Apr 09:11:35 09:14:21 14° 299° (WNW) 09:17:08 137.9125
PRISM 30 Apr 09:12:30 09:16:30 61° 259° (WSW) 09:20:34 437.425
M-CUBED/EXP-1 PRIME 30 Apr 09:13:05 09:16:32 28° 295° (WNW) 09:19:45 437.505
AAUSAT CUBESAT 2 30 Apr 09:19:18 09:22:20 20° 95° (E) 09:25:22 437.432
CUBEBUG 2 30 Apr 09:24:27 09:27:15 17° 93° (E) 09:29:59 437.445
CUTE-I 30 Apr 09:24:46 09:27:09 13° 298° (WNW) 09:29:33 437.470
UWE-3 30 Apr 09:24:58 09:25:57 11° 91° (E) 09:26:56 435.000/436.395/437.385
AUBIESAT-1 30 Apr 09:34:54 09:37:46 19° 297° (WNW) 09:40:28 437.475
Cosmos 2504 30 Apr 09:35:48 09:42:59 48° 270° (W) 09:50:39 435.465 / 435.565
CUTE 1.7 + AOD 2 30 Apr 09:38:17 09:42:31 88° 102° (ESE) 09:46:44 437.475
CINEMA 3 30 Apr 09:52:32 09:57:10 64° 285° (WNW) 10:01:33 145.822/145.860
ISS 30 Apr 09:54:56 09:57:33 22° 329° (NNW) 10:00:10 145.825
HO-68 30 Apr 09:55:21 10:02:32 84° 287° (WNW) 10:09:41 435.675
SO-50 30 Apr 09:57:47 10:01:03 17° 314° (NW) 10:04:18 436.795
ZACube-1 30 Apr 10:00:38 10:03:42 19° 94° (E) 10:06:44 437.345
SEEDS 30 Apr 10:11:10 10:15:13 50° 285° (WNW) 10:19:16 437.485
COMPASS 1 30 Apr 10:20:02 10:24:06 56° 285° (WNW) 10:28:10 437.405
UNISAT 6 30 Apr 10:21:31 10:25:31 29° 70° (ENE) 10:29:29 437.425
PHONESAT 2.4 30 Apr 10:25:42 10:27:11 13° 143° (SE) 10:28:39 2401.200-2431.200
DOVE 4 30 Apr 10:27:23 10:28:50 11° 298° (WNW) 10:30:16 437.250
TIGRISAT 30 Apr 10:39:37 10:44:01 43° 73° (ENE) 10:48:24 435.000
CANX-2 30 Apr 10:42:08 10:44:34 15° 293° (WNW) 10:47:00 2200.000
Oscar 11 30 Apr 10:47:48 10:52:06 88° 90° (E) 10:56:25 145.826/435.025
RS-15 30 Apr 10:47:55 10:55:25 19° 262° (W) 11:02:54 29.354- 29.394
AAUSAT CUBESAT 2 30 Apr 10:54:16 10:57:48 28° 289° (WNW) 11:01:20 437.432
FUNcube-1 30 Apr 10:55:13 10:59:26 87° 96° (E) 11:03:35 145.935
DELFI C3 30 Apr 10:56:25 11:00:18 51° 99° (E) 11:04:11 145.870
UWE-3 30 Apr 10:58:35 11:02:44 51° 286° (WNW) 11:06:47 435.000/436.395/437.385
CUBEBUG 2 30 Apr 11:00:03 11:03:59 34° 288° (WNW) 11:07:46 437.445
ANTELSAT 30 Apr 11:03:03 11:07:45 83° 76° (ENE) 11:12:23 437.575/2403.000
HUMSAT D 30 Apr 11:28:45 11:32:45 51° 100° (E) 11:36:42 437.325/437.525
QB50P2 30 Apr 11:34:01 11:37:54 34° 72° (ENE) 11:41:48 145.880/145.840
POLYITAN 1 30 Apr 11:36:06 11:40:00 35° 72° (ENE) 11:43:56 437.675
ZACube-1 30 Apr 11:36:23 11:39:59 28° 289° (WNW) 11:43:33 437.345
DUCHIFAT 1 30 Apr 11:37:53 11:41:40 32° 72° (ENE) 11:45:29 145.980
AIST 1 30 Apr 11:39:08 11:41:25 14° 72° (ENE) 11:43:40
POPSAT HIP 1 30 Apr 11:39:28 11:43:24 37° 72° (ENE) 11:47:23 437.405
QB50P1 30 Apr 11:42:55 11:46:55 41° 73° (ENE) 11:50:58 145.935-145.965
HO-68 30 Apr 11:45:38 11:49:10 14° 304° (NW) 11:52:41 435.675
GONETS M04 30 Apr 11:50:16 11:57:53 32° 72° (ENE) 12:05:24
DX 1 30 Apr 11:55:37 11:56:19 10° 92° (E) 11:57:01 434.975-435.025
UNISAT 6 30 Apr 11:58:21 12:02:09 24° 264° (W) 12:05:57 437.425
Cosmos 2499 30 Apr 11:59:00 12:03:49 17° 69° (ENE) 12:08:47 435.465 / 435.565
PHONESAT 2.4 30 Apr 12:00:32 12:03:40 74° 159° (SSE) 12:06:50 2401.200-2431.200
UKube-1 30 Apr 12:06:46 12:08:13 11° 92° (E) 12:09:40 .
AISAT 30 Apr 12:17:37 12:21:16 24° 96° (E) 12:24:55 437.250
TIGRISAT 30 Apr 12:17:55 12:20:50 16° 267° (W) 12:23:47 435.000
NANOSAT C BR1 30 Apr 12:19:07 12:23:23 75° 258° (WSW) 12:27:40 145.865
ESTCUBE 1 30 Apr 12:23:57 12:28:12 39° 99° (E) 12:32:27 437.505/2401.250
BUGSAT 1 30 Apr 12:31:28 12:35:38 66° 75° (ENE) 12:39:52 437.445
DELFI C3 30 Apr 12:33:50 12:34:42 11° 294° (WNW) 12:35:35 145.870
SPROUT 30 Apr 12:41:09 12:43:34 15° 93° (E) 12:45:58 437.525
JAS-2 30 Apr 12:50:52 12:55:47 29° 64° (ENE) 13:01:12 435.910
50 SAT 30 Apr 12:59:15 13:02:54 85° 283° (WNW) 13:06:34 437.505
CUBEBUG 1 30 Apr 13:01:57 13:06:24 76° 102° (ESE) 13:10:49 437.445
HUMSAT D 30 Apr 13:06:45 13:07:54 11° 295° (WNW) 13:09:01 437.325/437.525
QB50P2 30 Apr 13:10:56 13:13:46 17° 266° (W) 13:16:37 145.880/145.840
POLYITAN 1 30 Apr 13:13:05 13:15:53 17° 266° (W) 13:18:43 437.675
DUCHIFAT 1 30 Apr 13:14:29 13:17:24 18° 266° (W) 13:20:21 145.980
AIST 1 30 Apr 13:15:02 13:19:13 43° 268° (W) 13:23:22
POPSAT HIP 1 30 Apr 13:16:40 13:19:18 16° 267° (W) 13:21:57 437.405
QB50P1 30 Apr 13:20:34 13:22:52 14° 267° (W) 13:25:10 145.935-145.965
VELOX 1 30 Apr 13:21:40 13:26:05 63° 286° (WNW) 13:30:30 145.980
Oscar 19 30 Apr 13:21:50 13:26:20 31° 69° (ENE) 13:30:51 437.125/150
TISAT 1 30 Apr 13:26:10 13:28:12 13° 93° (E) 13:30:12 437.305
DX 1 30 Apr 13:28:30 13:32:50 59° 286° (WNW) 13:37:08 434.975-435.025
AO-85 30 Apr 13:35:45 13:40:59 52° 115° (ESE) 13:46:17 145.980
PHONESAT 2.4 30 Apr 13:37:42 13:40:41 38° 353° (N) 13:43:42 2401.200-2431.200
UKube-1 30 Apr 13:40:19 13:44:32 52° 287° (WNW) 13:48:44 .
GONETS M04 30 Apr 13:46:35 13:54:54 50° 271° (W) 14:03:09
Cosmos 2499 30 Apr 13:49:53 13:57:37 81° 265° (W) 14:05:58 435.465 / 435.565
AISAT 30 Apr 13:53:55 13:57:40 26° 290° (WNW) 14:01:23 437.250
ESTCUBE 1 30 Apr 14:01:42 14:04:41 18° 293° (WNW) 14:07:39 437.505/2401.250
SPROUT 30 Apr 14:15:38 14:19:40 40° 287° (WNW) 14:23:39 437.525
Gurwin Techsat 1B 30 Apr 14:32:27 14:37:40 61° 74° (ENE) 14:42:54 435.225
ITAMSAT 1 30 Apr 14:34:35 14:38:48 26° 68° (ENE) 14:43:02 435.822/435.867
JAS-2 30 Apr 14:35:19 14:40:35 38° 264° (W) 14:46:31 435.910
ISS 30 Apr 14:48:12 14:50:35 18° 29° (NNE) 14:52:57 145.825
TISAT 1 30 Apr 15:00:02 15:04:02 43° 287° (WNW) 15:08:01 437.305
Oscar 19 30 Apr 15:01:14 15:05:35 27° 264° (W) 15:09:59 437.125/150
ITUPSAT 1 30 Apr 15:08:54 15:13:13 34° 98° (E) 15:17:31 437.325
O/OREOS (USA 219) 30 Apr 15:09:04 15:12:37 22° 101° (ESE) 15:16:10 437.305
PHONESAT 2.4 30 Apr 15:14:52 15:17:55 43° 11° (N) 15:20:58 2401.200-2431.200
AO-85 30 Apr 15:17:27 15:21:47 24° 311° (NW) 15:26:06 145.980
SWISSCUBE 30 Apr 15:19:36 15:24:14 50° 100° (E) 15:28:52 437.505
AO-7 30 Apr 15:19:50 15:27:15 38° 63° (ENE) 15:34:41 29.400- 29.500
Cosmos 2499 30 Apr 15:46:57 15:49:36 12° 281° (W) 15:52:19 435.465 / 435.565
BEESAT 30 Apr 15:53:04 15:57:51 78° 284° (WNW) 16:02:35 436.000
ITAMSAT 1 30 Apr 16:13:26 16:18:05 33° 262° (W) 16:22:45 435.822/435.867
Gurwin Techsat 1B 30 Apr 16:15:12 16:17:58 14° 268° (W) 16:20:45 435.225
ISS 30 Apr 16:24:03 16:27:13 48° 225° (SW) 16:30:22 145.825
CUSAT 1 30 Apr 16:28:39 16:31:41 67° 280° (W) 16:35:36 437.405
PCSat 30 Apr 16:45:54 16:51:17 75° 115° (ESE) 16:56:43 145.827
ITUPSAT 1 30 Apr 16:47:11 16:50:50 22° 292° (WNW) 16:54:29 437.325
DANDE 30 Apr 16:47:46 16:50:22 58° 96° (E) 16:53:25 436.750
O/OREOS (USA 219) 30 Apr 16:47:46 16:51:49 30° 297° (WNW) 16:55:54 437.305
MOZHAYETS 4 30 Apr 16:48:07 16:52:10 30° 97° (E) 16:56:11
SO-50 30 Apr 16:49:53 16:53:55 27° 51° (NE) 16:57:50 436.795
PHONESAT 2.4 30 Apr 16:51:45 16:54:51 52° 206° (SSW) 16:57:56 2401.200-2431.200
SWISSCUBE 30 Apr 16:58:51 17:01:35 15° 295° (WNW) 17:04:19 437.505
Cosmos 2491 30 Apr 17:02:07 17:04:31 11° 61° (ENE) 17:06:54 435.465 / 435.565
KKS-1 30 Apr 17:04:06 17:08:36 77° 104° (ESE) 17:13:02 437.445
AO-7 30 Apr 17:12:03 17:19:49 44° 259° (W) 17:27:40 29.400- 29.500
NOAA 18 30 Apr 17:15:47 17:18:10 13° 61° (ENE) 17:20:32 137.9125
HORYU 2 30 Apr 17:26:40 17:31:08 83° 254° (WSW) 17:35:38 437.375
CUTE-I 30 Apr 17:26:40 17:27:44 11° 60° (ENE) 17:28:47 437.470
STARS 30 Apr 17:28:00 17:32:25 72° 102° (ESE) 17:36:47 437.465
Cubesat XI-IV 30 Apr 18:06:24 18:10:48 27° 68° (ENE) 18:15:12 437.490
GOMX 1 30 Apr 18:06:37 18:07:40 11° 61° (ENE) 18:08:45 467.674
NOAA 15 30 Apr 18:13:08 18:18:09 48° 72° (ENE) 18:23:13 137.62
BRITE-PL 30 Apr 18:16:14 18:20:10 27° 68° (ENE) 18:24:22 437.365/2234.400
M-CUBED/EXP-1 PRIME 30 Apr 18:22:26 18:25:53 20° 63° (ENE) 18:29:19 437.505
MOZHAYETS 4 30 Apr 18:25:38 18:29:08 22° 291° (WNW) 18:32:38
CUBESAT XI-V 30 Apr 18:25:48 18:30:11 37° 98° (E) 18:34:31 437.345
SO-50 30 Apr 18:30:18 18:34:21 30° 248° (WSW) 18:38:16 436.795
PCSat 30 Apr 18:32:03 18:35:16 16° 312° (NW) 18:38:31 145.827
AUBIESAT-1 30 Apr 18:42:55 18:46:47 27° 65° (ENE) 18:50:39 437.475
BEESAT 3 30 Apr 18:45:28 18:48:07 17° 110° (ESE) 18:50:47 437.485
LilacSat-2 30 Apr 18:47:42 18:51:31 56° 75° (ENE) 18:55:20 437.200
BEESAT 2 30 Apr 18:49:49 18:50:34 10° 108° (ESE) 18:51:19 435.950
NOAA 18 30 Apr 18:52:33 18:58:05 80° 256° (WSW) 19:03:38 137.9125
Cosmos 2491 30 Apr 18:54:17 19:03:06 69° 81° (E) 19:11:48 435.465 / 435.565
JUGNU 30 Apr 18:57:38 18:58:10 10° 166° (SSE) 18:58:42 437.505
CUTE-I 30 Apr 19:01:38 19:06:58 89° 254° (WSW) 19:12:19 437.470
YUBILEINY 30 Apr 19:04:11 19:11:57 37° 86° (E) 19:19:40 435.215
GOMX 1 30 Apr 19:39:59 19:44:51 84° 258° (WSW) 19:50:06 467.674
Cubesat XI-IV 30 Apr 19:45:53 19:50:41 34° 262° (W) 19:55:31 437.490
DOVE 4 30 Apr 19:48:42 19:53:36 59° 74° (ENE) 19:58:45 437.250
BRITE-PL 30 Apr 19:54:34 19:58:32 28° 266° (W) 20:02:48 437.365/2234.400
NOAA 15 30 Apr 19:54:37 19:58:09 18° 266° (W) 20:01:42 137.62
M-CUBED/EXP-1 PRIME 30 Apr 19:55:39 20:00:05 41° 257° (WSW) 20:04:33 437.505
CANX-2 30 Apr 19:55:57 19:59:05 21° 69° (ENE) 20:02:14 2200.000
CUBESAT XI-V 30 Apr 20:03:55 20:07:15 20° 292° (WNW) 20:10:36 437.345
AUBIESAT-1 30 Apr 20:17:05 20:21:06 29° 259° (W) 20:25:09 437.475
STRAND 1 30 Apr 20:19:37 20:24:34 48° 100° (E) 20:29:29 437.568
Cosmos 2504 30 Apr 20:19:55 20:25:32 24° 85° (E) 20:31:03 435.465 / 435.565
HO-68 30 Apr 20:20:39 20:27:36 57° 70° (ENE) 20:34:34 435.675
CUBEBUG 2 30 Apr 20:20:47 20:22:54 13° 65° (ENE) 20:24:59 437.445
BEESAT 3 30 Apr 20:22:00 20:25:33 32° 305° (NW) 20:29:09 437.485
BEESAT 2 30 Apr 20:24:01 20:27:55 53° 302° (WNW) 20:31:50 435.950
CUTE 1.7 + AOD 2 30 Apr 20:28:14 20:32:14 42° 74° (ENE) 20:36:13 437.475
JUGNU 30 Apr 20:43:01 20:46:22 15° 176° (S) 20:49:43 437.505
RS-15 30 Apr 20:45:43 20:52:08 17° 98° (E) 20:58:41 29.354- 29.394
CINEMA 3 30 Apr 20:50:18 20:55:16 83° 76° (ENE) 21:00:19 145.822/145.860
Cosmos 2491 30 Apr 20:52:47 20:59:01 22° 279° (W) 21:05:15 435.465 / 435.565
ZACube-1 30 Apr 20:54:52 20:57:03 13° 66° (ENE) 20:59:14 437.345
PRISM 30 Apr 20:57:14 21:00:27 21° 96° (E) 21:03:38 437.425
SEEDS 30 Apr 20:59:49 21:03:58 75° 77° (ENE) 21:08:09 437.485
YUBILEINY 30 Apr 21:00:21 21:08:31 43° 284° (WNW) 21:16:43 435.215
COMPASS 1 30 Apr 21:07:48 21:11:54 65° 76° (ENE) 21:15:59 437.405
DOVE 4 30 Apr 21:29:07 21:31:41 14° 270° (W) 21:34:19 437.250
CANX-2 30 Apr 21:31:07 21:34:45 28° 264° (W) 21:38:24 2200.000
AIST 2 30 Apr 21:35:28 21:39:29 55° 117° (ESE) 21:43:33 435.215
SRMSAT 30 Apr 21:38:49 21:41:13 12° 169° (S) 21:43:37 437.500
Oscar 11 30 Apr 21:39:44 21:43:52 47° 74° (ENE) 21:48:01 145.826/435.025
DELFI C3 30 Apr 21:40:37 21:43:34 21° 70° (ENE) 21:46:32 145.870
AAUSAT CUBESAT 2 30 Apr 21:41:08 21:45:11 60° 260° (W) 21:49:15 437.432
FUNcube-1 30 Apr 21:47:34 21:51:56 48° 74° (ENE) 21:56:15 145.935
UWE-3 30 Apr 21:51:57 21:56:37 88° 77° (ENE) 22:01:16 435.000/436.395/437.385
CUBEBUG 2 30 Apr 21:54:16 21:58:58 61° 260° (W) 22:03:38 437.445
STRAND 1 30 Apr 21:59:56 22:03:20 18° 295° (WNW) 22:06:44 437.568
CUTE 1.7 + AOD 2 30 Apr 22:06:13 22:08:15 13° 268° (W) 22:10:17 437.475
HO-68 30 Apr 22:10:03 22:15:36 24° 265° (W) 22:21:12 435.675
Cosmos 2504 30 Apr 22:11:19 22:18:26 50° 281° (W) 22:25:22 435.465 / 435.565
AO-85 30 Apr 22:11:22 22:15:04 22° 48° (NE) 22:18:30 145.980
HUMSAT D 30 Apr 22:17:42 22:21:13 26° 71° (ENE) 22:24:44 437.325/437.525
ZACube-1 30 Apr 22:28:24 22:32:52 53° 260° (W) 22:37:18 437.345
JUGNU 30 Apr 22:31:28 22:34:36 15° 187° (S) 22:37:44 437.505
PRISM 30 Apr 22:32:12 22:35:42 26° 290° (WNW) 22:39:11 437.425
RS-15 30 Apr 22:51:22 23:02:33 84° 117° (ESE) 23:14:26 29.354- 29.394
ANTELSAT 30 Apr 22:58:34 23:01:44 20° 94° (E) 23:04:50 437.575/2403.000
AISAT 30 Apr 23:13:18 23:16:06 17° 66° (ENE) 23:18:55 437.250
DELFI C3 30 Apr 23:15:06 23:18:18 24° 264° (W) 23:21:31 145.870
AIST 2 30 Apr 23:16:05 23:18:18 14° 313° (NW) 23:20:32 435.215
Oscar 11 30 Apr 23:18:21 23:20:12 13° 268° (W) 23:22:04 145.826/435.025
ESTCUBE 1 30 Apr 23:21:14 23:24:58 27° 70° (ENE) 23:28:42 437.505/2401.250
SRMSAT 30 Apr 23:26:05 23:29:36 16° 179° (S) 23:33:07 437.500
FUNcube-1 30 Apr 23:26:06 23:28:22 14° 268° (W) 23:30:37 145.935
50 SAT 30 Apr 23:35:41 23:38:50 27° 72° (ENE) 23:41:57 437.505
AO-85 30 Apr 23:51:24 23:55:41 38° 247° (WSW) 23:59:37 145.980
UNISAT 6 30 Apr 23:51:53 23:56:14 88° 101° (ESE) 00:00:30 437.425
HUMSAT D 30 Apr 23:53:27 23:56:47 22° 265° (W) 00:00:04 437.325/437.525
CUBEBUG 1 30 Apr 23:55:11 23:59:19 44° 73° (ENE) 00:03:29 437.445
NANOSAT C BR1 01 May 00:07:00 00:10:12 21° 95° (E) 00:13:22 145.865
TIGRISAT 01 May 00:10:20 00:14:36 59° 285° (WNW) 00:18:46 435.000
VELOX 1 01 May 00:15:59 00:20:23 81° 78° (ENE) 00:24:51 145.980
BUGSAT 1 01 May 00:18:16 00:19:44 12° 92° (E) 00:21:12 437.445
DX 1 01 May 00:20:59 00:25:20 84° 77° (ENE) 00:29:43 434.975-435.025
UKube-1 01 May 00:31:47 00:36:06 89° 283° (WNW) 00:40:27 .
ANTELSAT 01 May 00:34:41 00:38:27 29° 289° (WNW) 00:42:10 437.575/2403.000
Cosmos 2499 01 May 00:37:00 00:38:59 11° 79° (E) 00:40:57 435.465 / 435.565
GONETS M04 01 May 00:47:45 00:55:45 40° 87° (E) 01:03:46
AISAT 01 May 00:48:04 00:52:14 40° 261° (W) 00:56:26 437.250
QB50P2 01 May 00:56:48 01:01:04 86° 279° (W) 01:05:17 145.880/145.840
ESTCUBE 1 01 May 00:58:03 01:01:41 24° 264° (W) 01:05:21 437.505/2401.250
POLYITAN 1 01 May 00:58:56 01:03:11 85° 283° (WNW) 01:07:24 437.675
DUCHIFAT 1 01 May 00:59:41 01:03:56 87° 109° (ESE) 01:08:07 145.980
POPSAT HIP 1 01 May 01:02:10 01:06:26 80° 283° (WNW) 01:10:38 437.405
QB50P1 01 May 01:05:39 01:09:53 71° 284° (WNW) 01:14:05 145.935-145.965
SPROUT 01 May 01:05:58 01:10:16 77° 258° (WSW) 01:14:37 437.525
RS-15 01 May 01:06:51 01:16:32 30° 322° (NW) 01:26:43 29.354- 29.394
50 SAT 01 May 01:10:27 01:12:39 15° 266° (W) 01:14:50 437.505
SRMSAT 01 May 01:15:21 01:17:59 13° 190° (S) 01:20:37 437.500
O/OREOS (USA 219) 01 May 01:21:01 01:24:55 28° 63° (ENE) 01:28:47 437.305
CUSAT 1 01 May 01:23:26 01:26:00 12° 66° (ENE) 01:28:37 437.405
CUBEBUG 1 01 May 01:33:30 01:35:47 14° 267° (W) 01:38:06 437.445
PCSat 01 May 01:36:40 01:41:37 34° 56° (NE) 01:46:31 145.827
Oscar 19 01 May 01:37:32 01:39:55 13° 91° (E) 01:42:19 437.125/150
AIST 1 01 May 01:41:08 01:45:22 64° 278° (W) 01:49:41
NANOSAT C BR1 01 May 01:42:19 01:45:54 27° 289° (WNW) 01:49:28 145.865
JAS-2 01 May 01:45:55 01:53:09 40° 96° (E) 02:00:18 435.910
TISAT 1 01 May 01:48:27 01:52:42 86° 260° (W) 01:56:58 437.305
BUGSAT 1 01 May 01:51:19 01:55:23 47° 286° (WNW) 01:59:21 437.445
ITUPSAT 1 01 May 02:13:15 02:17:22 30° 70° (ENE) 02:21:29 437.325
SWISSCUBE 01 May 02:23:28 02:27:56 43° 72° (ENE) 02:32:26 437.505
Cosmos 2499 01 May 02:23:47 02:30:56 90° 342° (NNW) 02:38:02 435.465 / 435.565
GONETS M04 01 May 02:44:18 02:52:27 40° 285° (WNW) 03:00:39
Gurwin Techsat 1B 01 May 02:51:44 02:56:21 30° 97° (E) 03:00:56 435.225
ITAMSAT 1 01 May 02:52:49 02:53:26 10° 91° (E) 02:54:03 435.822/435.867
BEESAT 01 May 02:56:37 03:01:22 89° 86° (E) 03:06:10 436.000
O/OREOS (USA 219) 01 May 03:00:35 03:04:09 23° 258° (WSW) 03:07:41 437.305
CUSAT 1 01 May 03:01:45 03:08:58 69° 80° (E) 03:17:01 437.405
Oscar 19 01 May 03:14:29 03:19:38 63° 286° (WNW) 03:24:44 437.125/150
PCSat 01 May 03:20:14 03:24:51 29° 252° (WSW) 03:29:27 145.827
DANDE 01 May 03:24:21 03:30:46 53° 80° (E) 03:38:32 436.750
AO-7 01 May 03:27:48 03:30:15 11° 90° (E) 03:32:41 29.400- 29.500
RS-15 01 May 03:28:42 03:34:55 15° 357° (N) 03:41:13 29.354- 29.394
JAS-2 01 May 03:30:51 03:38:01 42° 292° (WNW) 03:45:12 435.910
MOZHAYETS 4 01 May 03:47:53 03:51:24 22° 69° (ENE) 03:54:54
ITUPSAT 1 01 May 03:51:17 03:55:09 25° 264° (W) 03:59:03 437.325
KKS-1 01 May 03:59:20 04:03:39 49° 73° (ENE) 04:08:00 437.445
SWISSCUBE 01 May 04:02:52 04:05:54 17° 266° (W) 04:08:56 437.505
STARS 01 May 04:21:53 04:26:05 44° 73° (ENE) 04:30:19 437.465
Cosmos 2499 01 May 04:22:17 04:25:02 12° 295° (WNW) 04:27:46 435.465 / 435.565
